Location: Binningen
(47.7924°N, 8.7261°E)
Time: 03:22:19
(UTC+00:00)

Meteor 1-10 Rocket - Pass Details

Date: 17 May 2021
Orbit: 837 x 909 km, 81.3° (Epoch: 14 June)

Event Time Altitude Azimuth Distance (km) Brightness Sun altitude
Rises 20:29:41 0° 195° (SSW) 3,392 7.0 -12.5°
Reaches altitude 10° 20:32:05 10° 197° (SSW) 2,469 6.3 -12.7°
Maximum altitude 20:37:40 74° 282° (WNW) 900 4.5 -13.3°
Drops below altitude 10° 20:43:26 10° 8° (N) 2,533 7.3 -13.9°
Sets 20:45:55 0° 11° (N) 3,487 8.1 -14.2°
